TimeEDT,TemperatureF,Dew PointF,Humidity,Sea Level PressureIn,VisibilityMPH,Wind Direction,Wind SpeedMPH,Gust SpeedMPH,PrecipitationIn,Events,Conditions,WindDirDegrees,DateUTC
12:15 AM,69.8,66.2,88,29.78,5.0,West,6.9,-,N/A,,Overcast,260,2013-03-25 04:15:00
12:35 AM,69.8,66.2,88,29.77,6.0,WSW,6.9,-,N/A,,Mostly Cloudy,250,2013-03-25 04:35:00
12:55 AM,68.0,66.2,94,29.77,5.0,WSW,4.6,-,N/A,,Partly Cloudy,250,2013-03-25 04:55:00
1:15 AM,66.2,66.2,100,29.77,5.0,West,5.8,-,N/A,,Clear,260,2013-03-25 05:15:00
1:35 AM,66.2,66.2,100,29.77,5.0,WSW,5.8,-,N/A,,Clear,250,2013-03-25 05:35:00
1:55 AM,66.2,66.2,100,29.77,5.0,West,6.9,-,N/A,,Clear,260,2013-03-25 05:55:00
2:15 AM,66.2,66.2,100,29.78,5.0,WSW,6.9,-,N/A,,Clear,250,2013-03-25 06:15:00
2:35 AM,66.2,66.2,100,29.78,5.0,West,8.1,-,N/A,,Clear,260,2013-03-25 06:35:00
2:55 AM,66.2,64.4,94,29.78,5.0,West,9.2,-,N/A,,Clear,260,2013-03-25 06:55:00
3:15 AM,66.2,62.6,88,29.78,6.0,West,10.4,-,N/A,,Clear,270,2013-03-25 07:15:00
3:35 AM,66.2,62.6,88,29.78,7.0,West,10.4,16.1,N/A,,Clear,260,2013-03-25 07:35:00
3:55 AM,66.2,62.6,88,29.78,7.0,West,11.5,-,N/A,,Clear,270,2013-03-25 07:55:00
4:15 AM,66.2,62.6,88,29.78,7.0,West,11.5,16.1,N/A,,Clear,280,2013-03-25 08:15:00
4:35 AM,64.4,60.8,88,29.78,7.0,West,10.4,16.1,N/A,,Clear,280,2013-03-25 08:35:00
4:55 AM,64.4,60.8,88,29.78,7.0,West,11.5,-,N/A,,Partly Cloudy,280,2013-03-25 08:55:00
5:15 AM,64.4,60.8,88,29.79,8.0,West,12.7,-,N/A,,Scattered Clouds,280,2013-03-25 09:15:00
5:35 AM,64.4,59.0,83,29.79,8.0,WNW,11.5,16.1,N/A,,Mostly Cloudy,290,2013-03-25 09:35:00
5:55 AM,62.6,59.0,88,29.80,8.0,WNW,12.7,-,N/A,,Scattered Clouds,290,2013-03-25 09:55:00
6:15 AM,62.6,59.0,88,29.80,8.0,WNW,12.7,19.6,N/A,,Mostly Cloudy,300,2013-03-25 10:15:00
6:35 AM,62.6,57.2,82,29.81,8.0,WNW,11.5,-,N/A,,Mostly Cloudy,290,2013-03-25 10:35:00
7:15 AM,62.6,55.4,77,29.83,8.0,NW,11.5,17.3,N/A,,Partly Cloudy,310,2013-03-25 11:15:00
7:35 AM,60.8,55.4,82,29.84,8.0,WNW,12.7,-,N/A,,Clear,290,2013-03-25 11:35:00
7:55 AM,60.8,51.8,72,29.86,9.0,WNW,10.4,-,N/A,,Clear,290,2013-03-25 11:55:00
8:15 AM,60.8,48.2,63,29.87,9.0,WNW,12.7,-,N/A,,Clear,290,2013-03-25 12:15:00
8:35 AM,60.8,48.2,63,29.88,10.0,NW,13.8,-,N/A,,Clear,310,2013-03-25 12:35:00
8:55 AM,60.8,46.4,59,29.89,9.0,NW,17.3,23.0,N/A,,Clear,310,2013-03-25 12:55:00
9:15 AM,60.8,44.6,55,29.90,9.0,NW,13.8,19.6,N/A,,Clear,320,2013-03-25 13:15:00
9:35 AM,60.8,42.8,52,29.91,9.0,NW,16.1,-,N/A,,Clear,310,2013-03-25 13:35:00
9:55 AM,60.8,37.4,42,29.92,9.0,NW,18.4,23.0,N/A,,Clear,310,2013-03-25 13:55:00
10:15 AM,62.6,37.4,39,29.93,9.0,NW,12.7,19.6,N/A,,Clear,320,2013-03-25 14:15:00
10:35 AM,62.6,39.2,42,29.94,10.0,WNW,13.8,17.3,N/A,,Clear,290,2013-03-25 14:35:00
10:55 AM,62.6,37.4,39,29.95,10.0,NW,15.0,-,N/A,,Clear,310,2013-03-25 14:55:00
11:15 AM,62.6,35.6,37,29.96,10.0,WNW,12.7,17.3,N/A,,Clear,300,2013-03-25 15:15:00
11:35 AM,64.4,37.4,37,29.96,9.0,WNW,13.8,18.4,N/A,,Clear,300,2013-03-25 15:35:00
11:55 AM,64.4,37.4,37,29.97,10.0,WNW,12.7,-,N/A,,Clear,300,2013-03-25 15:55:00
12:15 PM,64.4,39.2,40,29.96,9.0,NW,11.5,17.3,N/A,,Clear,320,2013-03-25 16:15:00
12:35 PM,66.2,37.4,35,29.96,9.0,WNW,11.5,17.3,N/A,,Clear,290,2013-03-25 16:35:00
12:55 PM,66.2,37.4,35,29.95,9.0,WNW,9.2,-,N/A,,Clear,300,2013-03-25 16:55:00
1:15 PM,66.2,30.2,26,29.95,10.0,WNW,10.4,-,N/A,,Clear,290,2013-03-25 17:15:00
1:35 PM,68.0,21.2,17,29.93,10.0,WNW,13.8,23.0,N/A,,Clear,300,2013-03-25 17:35:00
1:55 PM,69.8,21.2,16,29.93,10.0,WNW,15.0,19.6,N/A,,Clear,290,2013-03-25 17:55:00
2:15 PM,69.8,26.6,20,29.92,10.0,NW,12.7,17.3,N/A,,Clear,310,2013-03-25 18:15:00
2:35 PM,69.8,26.6,20,29.92,8.0,WNW,18.4,25.3,N/A,,Clear,290,2013-03-25 18:35:00
2:55 PM,69.8,26.6,20,29.92,9.0,WNW,16.1,25.3,N/A,,Clear,290,2013-03-25 18:55:00
3:15 PM,69.8,26.6,20,29.92,9.0,WNW,17.3,24.2,N/A,,Clear,300,2013-03-25 19:15:00
3:35 PM,68.0,28.4,23,29.92,9.0,WNW,15.0,21.9,N/A,,Clear,300,2013-03-25 19:35:00
3:55 PM,68.0,30.2,24,29.92,9.0,West,16.1,-,N/A,,Clear,280,2013-03-25 19:55:00
4:15 PM,68.0,30.2,24,29.92,8.0,WNW,15.0,23.0,N/A,,Clear,300,2013-03-25 20:15:00
4:35 PM,66.2,32.0,28,29.92,9.0,WNW,15.0,18.4,N/A,,Clear,290,2013-03-25 20:35:00
4:55 PM,66.2,30.2,26,29.92,9.0,West,15.0,-,N/A,,Clear,280,2013-03-25 20:55:00
5:15 PM,66.2,28.4,24,29.93,10.0,WNW,13.8,-,N/A,,Clear,290,2013-03-25 21:15:00
5:35 PM,66.2,24.8,21,29.93,9.0,NW,15.0,20.7,N/A,,Clear,310,2013-03-25 21:35:00
5:55 PM,66.2,26.6,23,29.93,9.0,West,10.4,19.6,N/A,,Clear,280,2013-03-25 21:55:00
6:15 PM,66.2,24.8,21,29.94,9.0,WNW,11.5,-,N/A,,Clear,290,2013-03-25 22:15:00
6:35 PM,64.4,28.4,26,29.94,10.0,West,12.7,-,N/A,,Clear,270,2013-03-25 22:35:00
6:55 PM,64.4,23.0,21,29.95,8.0,WNW,11.5,-,N/A,,Clear,290,2013-03-25 22:55:00
7:15 PM,62.6,26.6,26,29.96,10.0,West,13.8,17.3,N/A,,Clear,280,2013-03-25 23:15:00
7:35 PM,62.6,28.4,27,29.97,10.0,West,13.8,-,N/A,,Clear,280,2013-03-25 23:35:00
7:55 PM,60.8,30.2,31,29.98,10.0,West,11.5,-,N/A,,Clear,280,2013-03-25 23:55:00
8:15 PM,60.8,32.0,34,29.99,10.0,West,12.7,18.4,N/A,,Clear,280,2013-03-26 00:15:00
8:35 PM,57.2,32.0,38,29.99,10.0,West,10.4,20.7,N/A,,Clear,280,2013-03-26 00:35:00
8:55 PM,57.2,33.8,41,30.00,10.0,WNW,13.8,-,N/A,,Clear,290,2013-03-26 00:55:00
9:15 PM,57.2,33.8,41,30.01,10.0,West,11.5,-,N/A,,Clear,280,2013-03-26 01:15:00
9:35 PM,55.4,35.6,47,30.03,10.0,West,13.8,20.7,N/A,,Clear,280,2013-03-26 01:35:00
9:55 PM,55.4,35.6,47,30.04,10.0,West,10.4,16.1,N/A,,Clear,280,2013-03-26 01:55:00
10:15 PM,55.4,37.4,51,30.05,10.0,West,11.5,-,N/A,,Clear,270,2013-03-26 02:15:00
10:35 PM,55.4,39.2,54,30.06,10.0,West,9.2,-,N/A,,Clear,270,2013-03-26 02:35:00
10:55 PM,53.6,39.2,58,30.06,10.0,West,6.9,-,N/A,,Clear,260,2013-03-26 02:55:00
11:15 PM,53.6,39.2,58,30.06,10.0,West,6.9,-,N/A,,Clear,280,2013-03-26 03:15:00
11:35 PM,53.6,39.2,58,30.06,10.0,West,8.1,-,N/A,,Clear,280,2013-03-26 03:35:00
11:55 PM,53.6,39.2,58,30.06,10.0,WNW,10.4,-,N/A,,Clear,290,2013-03-26 03:55:00